Showing default

OPS 9341 (IDSCS 19), 3284

Orbit data source: Space-Track

OPS 9341 (IDSCS 19), 3284 is a payload satellite owned by SAMSO (US) in GEO that was launched on Thu, 13 Jun 1968 UTC via a TITAN IIIC launch vehicle from the Air Force Eastern Test Range (AFETR). Payloads include a variety of satellites, spacecraft, and rockets equipped with specific instruments for various scientific and technological missions. These include communications satellites like Starlink; space stations such as the ISS; scientific satellites like the Hubble; Earth observation satellites from companies like Planet Labs, Umbra, and HawkEye 360; GPS; miniature CubeSats for education and research; and military/defense satellites.

Not visible in the next 10 days
OPS 9341 (IDSCS 19) details
Identifier
3284, 1968-050A
Orbit
GEO
Last TLE update13 hours ago
Origin
Flag of USSAMSO (US)
ManufacturerPhilco-Ford
MissionNon-operational Defense Communications
Bus & MotorIDCSP, Unknown motor
Mass45 kg wet, 45 kg dry
Launch date (UTC)
1968-06-13 (57 years ago)
Launch vehicle
TITAN IIIC
Launch site
Air Force Eastern Test Range (AFETR)
Object type
Payload
Rocket body
Debris
Shape & HBRPoly, 0.9 m
Radar Cross Section0.926 m², Medium (>0.1 m² and < 1m²)

Expand to show TLE details & history

TLE from 13 hours ago
0 OPS 9341 (IDSCS 19)
1  3284U 68050A   24355.99817189 -.00000088  00000-0  00000+0 0  9993
2  3284   6.1004  56.4276 0014012 142.3726 288.3412  1.07854376129082
Epoch: 2024-12-20T23:57Z
Definitive object data (Epoch: 2024-12-20T23:57:22.051Z)
Latitude5.77298°
Longitude37.49517°
Altitude33,767.911 km
Speed3.152 km/s
True Right ascension08h 27m 34s
True Declination5° 46' 01"
Sunlit
Object was in daylight at TLE epoch
Visualization TLE readout
Latitude-5.88817°
Longitude-107.19307°
Altitude33,831.719 km
Speed3.147 km/s
Apparent Right ascension22h 58m 11s
Apparent Declination-10° 24' 41"
Sunlit
Object is in daylight
Visualization observer readout
Local Sidereal Time12:16:11
Azimuth35.736° NE
Elevation-55.796°
Doppler factor1
Orbital elements
Apogee altitude33,843.835 km
Perigee altitude33,731.274 km
Semi-major axis40,165.692 km
Eccentricity0.0014012
Inclination6.1004°
RAAN56.4276°
Arg. of periapsis142.3726°
True anomaly288.18871°
Mean anomaly288.3412°
Eccentric anomaly288.26496°
Mean motion0.26963 °/min
BSTARUnknown
Orbital period1335.19 mins
Loading historical data...
3284 neighbors
Authenticating...
Loading maneuver chart data...
Loading historical data...
Loading historical data...
Loading historical data...
Loading historical data...
Loading historical data...
Loading historical data...
Loading historical data...

OPS 9341 (IDSCS 19) Visibility forecast

Observer location: undefined°, undefined

OPS 9341 (IDSCS 19) is not visible in the next 10 days
Span
Click to sort rows by Start time (UTC) header in descending order
Start Az.
Max El. time (UTC)
Max El. Az.
Max El.
End time (UTC)
End Az.
|